User: anonymous   Login
Location: Unspecified
(0.0000°N, 0.0000°E)
Time: 00:16:08
(UTC+00:00)
Language:

Tiangong 1 - Orbit

View from above orbital plane
View from above orbital plane
View from above satellite
View from above satellite

Ground track
Ground track

The orbit data is extracted from the following two-line orbital elements,

1 37820U 11053A   16210.78166479  .00009258  00000-0  97901-4 0  9992
2 37820  42.7637 358.2520 0015466 326.4057 168.8540 15.64254111277092
Epoch (UTC): 28 July 2016 18:45:35
Eccentricity: 0.0015466
inclination: 42.7637°
perigee height: 365 km
apogee height: 386 km
right ascension of ascending node: 358.2520°
argument of perigee: 326.4057°
revolutions per day: 15.64254111
mean anomaly at epoch: 168.8540°
orbit number at epoch: 27709

The dashed part of the orbit path shows where the satellite is in the earth's shadow,  

DLR